Location: *
(58.7167°N, 26.1833°E)
Time: 18:48:50
(UTC+00:00)

Meteor 1-15 Rocket - Pass Details

Date: 25 August 2019
Orbit: 840 x 907 km, 81.2° (Epoch: 16 October)

Event Time Altitude Azimuth Distance (km) Brightness Sun altitude
Exits shadow 21:15:56 37° 166° (SSE) 1,308 4.6 -19.6°
Maximum altitude 21:18:07 64° 99° (E) 948 4.3 -19.6°
Drops below altitude 10° 21:23:46 10° 20° (NNE) 2,525 7.5 -19.8°
Sets 21:26:15 0° 17° (NNE) 3,477 8.4 -19.9°
